Temperature
27 27 27 27 27 27 27 28 28 28 28 26 26 25 24 23 22 22 21 20 20 19 19 19 18 18 18 18 18 18 17 17 17 17 17 17 17 17 17 17 16 16 16 16
26 27 27 26 26 27 27 27 27 27 27 26 25 24 23 22 21 21 20 20 19 19 18 18 18 18 18 18 18 18 17 17 17 17 17 17 17 17 16 16 16 16 16 16
26 26 26 26 26 27 27 27 27 27 26 25 24 23 22 21 21 20 19 19 18 18 18 18 18 18 17 17 17 17 17 17 17 17 16 16 16 16 16 16 16 16 16 15
26 25 24 26 26 26 26 26 26 26 25 24 23 22 21 20 20 19 19 18 18 18 18 18 17 17 17 17 17 17 17 17 17 16 16 16 16 16 16 16 16 15 15 15
25 25 25 25 25 25 25 25 25 25 24 23 22 21 21 19 19 18 18 17 17 17 17 17 17 17 17 16 16 16 16 16 16 16 16 16 15 15 15 15 15 15 15 15
24 24 24 25 25 24 25 24 24 23 23 22 22 23 22 19 18 18 17 17 17 17 17 17 16 16 16 16 16 16 16 16 16 16 16 15 15 15 15 15 15 15 14 14
24 24 25 24 23 23 24 24 22 22 21 21 22 21 19 18 17 17 17 17 17 17 16 16 16 16 16 16 15 15 16 16 15 15 15 15 15 15 14 14 14 14 14 14
23 23 24 22 23 23 22 21 21 20 20 20 19 18 18 17 17 17 16 16 16 16 16 16 16 15 15 15 15 15 15 15 15 15 15 15 14 14 14 14 14 14 13 13
23 23 21 21 21 20 20 20 19 19 19 18 18 18 17 17 16 16 16 16 16 16 15 15 15 15 15 15 15 14 14 14 14 14 14 14 14 14 14 14 14 13 13 13
21 21 20 19 19 19 19 19 18 18 18 18 17 17 17 16 16 16 15 15 15 15 15 15 14 14 14 14 14 14 14 14 14 14 14 14 14 13 13 13 13 13 13 12
20 20 19 19 18 18 18 17 17 17 17 17 17 17 16 16 16 15 15 15 15 15 15 14 14 14 14 14 14 14 14 14 14 14 14 13 13 13 13 13 12 12 12 12
21 20 19 18 17 17 17 17 17 17 17 17 17 16 16 16 15 15 15 15 14 14 14 14 14 14 14 14 13 13 14 13 14 14 14 14 13 13 13 12 12 12 12 12
18 18 18 17 17 17 17 17 16 16 16 16 16 16 15 15 15 14 14 14 14 14 14 14 13 13 13 13 13 13 13 13 14 14 13 13 13 13 12 12 12 12 12 11
16 16 16 16 16 16 16 16 16 16 15 15 15 15 15 15 14 14 14 14 14 13 13 13 13 13 13 13 13 13 13 13 13 13 13 13 13 12 12 12 12 11 11 11
16 16 16 16 16 15 15 15 15 15 15 15 15 15 14 14 14 14 13 13 13 13 13 13 13 13 13 13 13 13 13 13 13 12 12 12 12 12 12 12 12 11 11 11
15 15 15 15 15 15 16 16 15 15 15 15 14 14 14 13 13 13 13 13 13 13 12 12 12 12 12 13 13 13 13 13 12 12 12 12 12 12 12 11 11 11 11 11
15 15 15 15 15 15 15 15 15 15 14 14 14 13 13 13 13 12 12 12 12 12 12 12 12 12 12 12 12 12 12 12 12 12 12 12 12 11 11 11 11 11 10 10
15 15 15 15 15 15 14 14 14 14 14 13 13 13 13 13 12 12 12 12 12 12 12 12 12 12 12 12 12 12 12 12 12 11 11 11 11 11 11 10 10 10 10 10
15 15 14 14 14 14 14 14 13 13 13 13 13 13 12 12 12 12 12 12 12 12 11 11 12 11 11 11 11 11 11 11 11 11 11 11 11 11 10 10 10 10 10 9
14 14 14 14 14 13 13 13 13 13 12 12 12 12 12 12 12 12 12 12 12 12 11 11 11 11 11 11 11 11 11 11 11 11 11 10 10 10 10 10 10 9 9 9
14 14 14 13 13 13 13 13 12 12 12 12 12 12 12 12 11 11 11 12 11 11 11 11 11 11 11 11 11 11 11 11 11 11 10 10 10 9 9 9 9 9 8 8
13 13 13 13 13 12 12 12 12 12 12 12 11 11 11 11 11 11 11 11 11 11 11 11 11 11 10 10 11 11 11 10 10 10 10 10 9 9 9 8 8 8 8 7
13 13 12 12 12 12 12 12 11 11 11 11 11 11 11 11 11 11 11 11 11 11 11 11 11 11 10 10 10 10 10 10 10 10 9 9 9 8 8 8 8 8 7 7
12 12 12 12 12 11 11 11 11 11 11 11 11 11 11 11 11 11 11 11 11 11 10 10 11 10 10 10 10 10 10 9 9 9 9 9 8 8 8 8 7 7 7 7
12 12 12 11 11 12 11 11 11 11 11 11 11 11 11 11 11 11 11 10 10 10 10 10 10 10 10 10 10 9 9 9 9 9 8 8 8 8 7 7 7 7 7 6
11 11 11 11 11 11 11 11 11 11 11 11 11 11 11 11 10 10 10 10 10 10 10 10 10 10 10 9 9 9 9 8 8 8 8 8 8 8 7 7 7 6 6 6
11 11 11 11 11 11 11 11 11 11 11 11 11 11 11 10 10 10 10 10 10 10 10 10 10 10 9 9 9 9 9 8 8 8 8 7 7 7 7 7 6 6 6 6
Wind_Speed
8 6 6 8 8 9 11 11 11 8 7 5 3 1 1 1 0 0 0 0 0 0 1 2 3 3 3 4 4 4 4 4 4 4 4 4 5 5 5 5 5 5 5 5
9 8 8 10 10 10 11 11 11 9 7 4 2 2 1 0 0 1 1 1 1 1 1 1 3 3 3 3 3 3 3 3 3 3 4 4 4 5 4 5 5 5 5 5
10 8 9 12 11 11 10 10 10 10 6 4 4 2 1 1 1 0 1 1 1 2 2 1 2 3 3 3 3 4 3 3 3 4 4 4 4 4 5 5 5 5 5 4
8 8 12 5 2 6 8 8 8 6 4 4 3 2 1 1 1 0 1 1 2 2 1 1 2 3 3 3 3 3 3 3 3 3 4 3 4 4 4 4 4 4 4 4
9 11 10 6 5 6 8 8 4 4 4 3 3 3 2 2 1 0 1 1 1 1 1 0 1 2 3 3 3 2 2 2 3 3 3 3 4 3 3 3 3 4 3 4
9 11 11 4 3 3 6 8 3 3 4 3 4 5 2 2 1 0 0 1 1 1 1 0 0 1 2 2 3 2 2 2 2 3 3 3 3 3 2 3 3 2 2 2
13 12 8 1 3 5 8 3 3 4 4 3 3 2 1 1 1 0 0 1 1 1 0 0 0 1 2 2 2 2 2 2 2 2 3 3 2 1 1 2 1 1 1 1
9 11 7 4 4 4 1 2 3 3 2 1 1 1 1 1 1 1 0 1 1 0 0 0 0 1 2 2 2 2 2 2 2 2 2 1 1 2 2 2 2 2 1 1
5 3 2 1 1 1 0 2 2 2 2 2 1 1 1 1 1 1 1 1 1 0 1 1 1 1 2 1 1 1 2 2 2 2 1 1 2 2 2 2 1 1 1 1
4 3 1 1 0 1 1 2 2 2 2 2 2 2 2 2 2 2 2 1 1 1 2 1 1 1 1 1 1 2 2 2 2 2 2 2 1 1 1 1 1 1 1 1
6 4 2 3 2 1 1 1 2 1 1 2 2 2 2 2 3 2 2 1 1 2 2 2 1 1 1 1 2 2 2 2 2 2 2 2 1 0 0 1 0 1 1 2
5 4 4 4 3 2 2 2 1 1 0 1 1 2 2 2 2 2 2 2 2 2 2 2 1 1 1 1 2 2 2 2 2 2 2 1 1 2 4 2 4 2 1 2
4 4 3 3 3 3 2 2 1 1 1 1 1 1 1 1 1 2 2 2 2 2 2 2 1 1 0 1 1 2 2 2 2 1 1 1 1 1 1 2 3 2 1 0
3 3 3 4 3 3 2 2 1 1 1 1 1 1 1 1 1 1 1 1 1 1 1 1 1 1 0 1 1 1 2 2 2 2 1 1 1 1 1 0 0 0 2 3
4 4 4 4 3 3 3 2 2 1 1 1 1 1 1 1 1 1 1 1 1 1 1 1 1 0 0 1 1 0 1 1 1 1 1 1 1 1 1 0 0 0 1 1
4 4 4 4 3 3 3 2 1 1 1 1 1 2 1 1 1 2 1 1 2 1 1 1 1 0 1 1 1 1 1 2 1 1 1 1 1 1 1 0 0 1 1 2
5 5 5 5 4 2 2 1 1 1 1 1 2 2 2 2 2 2 1 1 1 1 1 1 1 1 1 1 1 1 1 2 3 1 1 1 1 1 1 1 1 1 1 2
5 5 5 4 3 2 1 1 1 1 1 1 1 2 2 2 2 2 1 1 2 2 2 2 2 2 2 1 0 0 1 1 1 1 1 1 0 1 1 1 1 1 1 1
4 4 4 3 2 2 2 1 1 1 1 2 2 2 2 2 2 2 2 2 2 2 1 2 2 2 2 2 1 1 1 1 1 1 1 1 0 0 1 1 1 1 1 2
4 4 4 3 2 2 2 2 2 1 1 1 2 2 2 2 2 2 3 2 1 0 1 2 2 2 2 2 0 1 1 1 1 1 1 1 1 1 1 1 1 2 2 2
3 3 3 3 2 2 3 3 2 2 2 2 2 2 2 3 3 3 3 2 2 1 2 3 2 2 2 1 2 1 1 1 1 1 1 1 1 1 1 1 1 1 2 2
2 2 2 2 2 2 2 2 2 3 3 2 2 2 3 3 3 3 2 1 2 2 2 2 2 3 1 2 2 1 1 1 1 1 1 1 1 1 0 1 1 1 1 2
2 2 2 2 2 2 2 2 2 3 3 3 3 3 3 3 3 3 2 2 2 3 3 2 3 3 2 2 1 1 1 1 1 1 1 1 0 0 0 0 0 1 1 2
2 2 2 2 2 2 3 2 2 2 3 3 3 3 3 3 3 3 2 4 4 4 3 4 5 3 3 2 1 0 0 0 0 0 0 0 0 0 0 0 1 1 1 1
2 3 3 3 3 2 3 3 3 3 4 3 3 4 3 2 2 2 3 4 5 4 3 4 5 4 2 1 1 0 1 1 1 0 0 1 1 1 1 1 1 1 1 1
2 2 2 2 2 2 2 2 2 2 3 3 3 3 3 3 3 3 3 4 5 4 2 2 2 2 1 1 1 1 1 1 0 1 1 1 1 1 1 1 1 1 1 1
2 1 1 1 1 1 1 1 1 1 2 2 3 3 3 3 3 3 3 3 3 3 2 2 2 2 1 1 1 1 0 0 1 1 1 1 1 1 1 1 1 1 1 1
Wind_Direction
260 266 254 249 248 243 250 258 262 262 243 227 232 253 270 276 267 179 181 169 176 237 218 194 180 183 190 191 185 185 191 199 203 209 212 216 219 224 228 230 232 232 235 240
244 244 243 248 248 245 247 252 252 254 244 217 208 223 256 281 235 235 249 276 310 312 303 217 190 187 188 187 175 173 183 197 199 208 215 217 222 228 233 239 243 238 238 242
242 234 245 242 238 239 238 243 248 251 240 194 206 212 235 219 201 272 344 325 317 304 293 237 197 183 181 177 171 178 188 196 196 204 213 222 230 235 239 243 244 242 242 242
244 232 242 240 258 238 238 241 249 257 231 218 216 210 197 165 153 86 359 344 327 304 296 224 177 168 165 163 167 180 190 202 205 209 218 227 234 238 243 241 240 236 236 235
241 241 245 233 220 224 235 237 236 232 209 203 177 188 171 121 76 18 334 345 335 315 301 276 165 158 164 168 170 181 192 205 212 217 220 224 231 237 241 242 246 245 235 232
239 247 248 234 169 218 243 228 187 204 192 186 201 233 201 98 66 350 2 26 11 11 26 138 152 160 169 173 184 198 206 213 210 212 215 224 230 240 248 242 245 245 233 231
238 245 246 148 159 199 228 235 159 194 195 208 241 299 100 149 160 132 73 26 17 43 23 328 184 163 185 189 204 207 204 202 207 211 211 215 212 217 233 217 200 209 206 213
235 242 238 125 178 220 310 93 159 173 180 173 85 90 136 150 163 192 3 356 347 40 48 4 107 143 186 205 210 200 197 194 192 198 206 182 191 203 197 193 183 186 199 230
248 255 55 152 225 46 160 183 176 170 167 166 164 178 200 185 190 215 251 238 238 189 171 171 169 171 189 202 196 190 185 184 180 173 171 167 180 179 178 172 184 199 222 251
252 236 232 241 198 146 126 146 152 162 177 183 195 210 229 240 227 231 246 243 206 195 187 180 183 187 192 178 178 167 162 164 162 156 154 144 182 179 172 171 198 223 252 276
241 237 234 206 194 151 137 128 123 141 185 208 207 220 230 239 237 241 250 236 210 205 199 191 179 175 170 152 163 166 162 168 171 164 152 155 146 79 187 156 5 276 286 298
252 223 238 220 193 185 178 168 157 153 187 247 227 222 226 238 247 247 244 226 211 206 192 184 179 170 171 174 169 178 178 178 181 172 154 161 138 100 68 83 86 79 3 321
263 240 233 209 200 201 202 205 208 213 222 245 259 229 235 250 241 234 233 222 209 195 188 182 170 154 153 187 189 190 196 187 194 179 167 174 182 174 140 111 120 123 124 60
197 189 192 196 200 199 195 199 199 210 218 222 224 233 230 227 217 218 226 223 206 191 181 174 153 135 146 169 186 207 209 173 195 196 189 189 182 196 207 194 151 60 149 163
202 210 196 189 188 188 191 189 188 192 178 173 179 194 196 198 194 194 185 185 171 172 163 158 153 156 150 157 158 169 200 180 192 204 172 161 175 203 207 210 305 340 27 112
194 176 172 181 187 190 190 185 185 161 134 125 132 139 139 147 148 149 149 158 167 167 154 158 170 136 130 142 148 149 131 100 140 188 178 173 183 212 230 232 273 331 352 358
185 184 185 191 192 196 209 205 193 173 145 122 120 133 136 135 131 129 138 150 146 141 143 146 137 118 125 137 176 180 147 135 153 199 187 178 200 226 242 266 282 312 327 23
196 193 192 194 200 200 199 176 167 159 145 139 158 173 171 169 159 152 150 144 135 121 114 121 116 123 133 136 155 252 144 131 148 161 158 164 214 228 242 263 296 334 334 45
169 169 173 178 187 192 192 183 155 137 161 178 189 198 197 192 188 191 171 159 155 151 123 121 125 146 134 107 92 161 139 129 131 122 126 120 179 314 351 9 1 346 341 352
144 147 152 158 170 180 191 189 179 175 178 184 195 203 199 195 198 204 187 173 155 107 139 136 155 147 132 122 219 148 114 102 85 86 90 78 44 18 16 8 359 357 4 5
146 147 155 164 172 190 199 196 187 184 183 194 200 202 199 192 188 194 199 175 127 132 159 160 163 143 132 140 207 158 133 118 83 61 53 44 43 29 16 8 11 17 13 350
170 163 165 171 175 192 202 198 190 188 184 187 195 197 192 187 183 184 187 184 136 136 157 150 146 112 123 214 172 130 103 90 72 53 65 76 86 81 37 15 19 15 356 341
185 179 179 176 172 188 204 201 197 192 189 190 194 198 198 192 195 188 175 164 152 144 156 137 109 120 180 190 132 117 99 73 42 50 92 124 140 160 158 9 353 352 343 347
180 180 181 177 176 185 198 203 200 196 196 201 202 201 199 188 188 190 165 138 145 152 150 117 124 143 186 165 145 123 3 338 10 27 47 92 120 211 211 242 291 321 342 347
185 188 183 180 186 191 191 190 189 197 201 193 191 187 192 194 182 156 139 137 134 151 140 126 142 167 186 161 159 33 4 17 348 303 244 251 240 236 249 260 280 299 313 324
190 197 186 200 208 202 194 190 192 194 187 176 171 165 158 148 144 144 145 140 134 137 137 137 151 176 179 164 142 116 94 110 167 247 246 247 261 281 299 305 291 288 294 311
173 169 169 175 170 166 160 166 176 182 178 163 148 138 139 145 146 142 138 135 133 136 144 154 161 164 169 165 140 123 124 264 284 274 269 278 284 279 275 283 295 302 305 310
Height
1487 1485 1486 1489 1489 1489 1489 1486 1487 1486 1487 1491 1493 1497 1500 1501 1502 1503 1504 1505 1505 1506 1506 1507 1508 1509 1510 1512 1513 1514 1515 1516 1518 1519 1520 1521 1521 1522 1523 1523 1523 1523 1524 1524
1491 1487 1487 1489 1488 1487 1488 1486 1486 1486 1488 1490 1495 1498 1500 1501 1502 1502 1502 1503 1504 1505 1505 1505 1506 1506 1508 1509 1510 1512 1513 1514 1515 1516 1517 1518 1518 1519 1519 1520 1520 1520 1520 1520
1490 1487 1489 1490 1483 1483 1484 1483 1483 1485 1486 1490 1494 1497 1499 1500 1501 1501 1502 1503 1503 1503 1503 1503 1504 1505 1506 1507 1509 1510 1510 1511 1512 1513 1514 1515 1515 1516 1516 1516 1516 1516 1517 1517
1488 1493 1501 1483 1479 1479 1482 1483 1483 1483 1486 1490 1494 1497 1499 1500 1501 1501 1501 1502 1502 1502 1502 1503 1503 1504 1504 1506 1507 1508 1508 1509 1510 1511 1511 1512 1512 1512 1513 1513 1513 1513 1513 1513
1487 1489 1486 1482 1480 1481 1483 1483 1484 1485 1488 1491 1494 1496 1497 1499 1500 1501 1501 1501 1501 1502 1502 1501 1502 1502 1503 1504 1505 1506 1506 1507 1507 1508 1509 1509 1509 1509 1509 1509 1509 1509 1509 1509
1487 1492 1491 1479 1478 1481 1484 1484 1486 1487 1489 1491 1492 1490 1494 1498 1499 1500 1500 1500 1500 1500 1500 1500 1501 1501 1502 1502 1502 1503 1504 1505 1505 1505 1506 1507 1507 1506 1506 1506 1506 1506 1506 1506
1486 1487 1477 1478 1481 1483 1488 1484 1486 1487 1489 1491 1491 1492 1496 1497 1498 1499 1499 1499 1499 1499 1499 1499 1499 1499 1500 1500 1501 1501 1502 1503 1503 1503 1504 1504 1504 1504 1504 1504 1504 1503 1503 1503
1484 1486 1482 1480 1481 1482 1484 1486 1486 1488 1490 1492 1493 1494 1495 1497 1497 1498 1498 1498 1498 1498 1498 1497 1498 1498 1498 1499 1499 1500 1500 1501 1501 1501 1502 1502 1502 1502 1502 1502 1502 1501 1501 1501
1478 1480 1482 1482 1483 1485 1486 1487 1488 1489 1491 1492 1493 1494 1495 1496 1496 1496 1497 1497 1497 1497 1496 1496 1497 1497 1497 1498 1498 1498 1498 1499 1499 1500 1500 1500 1500 1500 1500 1500 1500 1500 1500 1500
1481 1480 1483 1484 1485 1486 1487 1487 1488 1490 1490 1491 1492 1493 1494 1495 1495 1496 1496 1496 1495 1495 1495 1495 1496 1496 1496 1496 1496 1497 1497 1497 1498 1498 1499 1499 1499 1499 1499 1499 1499 1499 1499 1498
1481 1482 1484 1484 1485 1486 1487 1488 1488 1489 1490 1491 1491 1492 1493 1493 1494 1494 1494 1494 1494 1494 1494 1494 1494 1494 1494 1495 1495 1495 1496 1496 1496 1497 1497 1497 1497 1497 1497 1498 1498 1497 1497 1497
1477 1481 1482 1483 1485 1486 1487 1487 1488 1489 1489 1490 1491 1491 1491 1492 1492 1492 1492 1492 1492 1492 1492 1492 1492 1492 1493 1493 1493 1494 1494 1494 1495 1495 1495 1495 1496 1496 1496 1496 1496 1495 1495 1495
1480 1481 1482 1483 1484 1485 1486 1487 1487 1488 1489 1489 1489 1490 1490 1490 1490 1491 1491 1491 1491 1491 1491 1491 1491 1491 1491 1491 1492 1492 1492 1493 1493 1493 1493 1494 1494 1494 1494 1495 1494 1494 1493 1493
1480 1481 1481 1482 1483 1484 1485 1485 1486 1487 1487 1488 1488 1488 1489 1489 1489 1489 1489 1489 1489 1489 1490 1490 1489 1489 1490 1490 1490 1490 1491 1491 1491 1492 1492 1492 1492 1493 1493 1493 1493 1492 1492 1491
1479 1480 1480 1481 1482 1483 1484 1484 1484 1485 1485 1486 1486 1487 1487 1487 1487 1487 1487 1488 1488 1488 1488 1488 1488 1488 1488 1488 1488 1489 1489 1489 1490 1490 1491 1490 1491 1491 1492 1491 1491 1491 1490 1489
1478 1479 1480 1480 1481 1482 1483 1483 1483 1483 1484 1484 1485 1485 1486 1486 1486 1486 1486 1487 1487 1487 1487 1487 1487 1487 1487 1487 1487 1488 1488 1488 1488 1489 1489 1489 1489 1490 1490 1490 1490 1490 1489 1488
1477 1477 1479 1480 1481 1482 1482 1483 1483 1483 1483 1484 1484 1485 1485 1485 1486 1486 1486 1486 1486 1486 1486 1486 1486 1486 1486 1486 1486 1487 1487 1487 1487 1487 1488 1488 1488 1488 1489 1489 1488 1488 1488 1487
1476 1476 1478 1479 1480 1480 1481 1481 1482 1482 1482 1483 1483 1484 1485 1485 1485 1485 1485 1485 1485 1485 1486 1486 1486 1485 1485 1485 1485 1486 1487 1487 1487 1487 1487 1487 1487 1487 1488 1488 1487 1487 1486 1485
1475 1476 1477 1478 1479 1479 1480 1480 1481 1481 1482 1482 1482 1483 1484 1484 1484 1484 1484 1484 1485 1485 1485 1485 1485 1485 1485 1485 1486 1486 1486 1486 1486 1486 1486 1486 1486 1487 1486 1486 1486 1485 1484 1484
1474 1475 1476 1477 1478 1478 1478 1479 1479 1480 1480 1481 1481 1481 1482 1482 1483 1483 1484 1484 1484 1484 1484 1484 1485 1485 1485 1485 1485 1486 1486 1486 1486 1486 1486 1486 1486 1486 1485 1485 1485 1484 1483 1483
1474 1474 1475 1476 1476 1477 1477 1477 1477 1478 1478 1479 1479 1480 1480 1481 1482 1482 1482 1483 1482 1483 1483 1484 1484 1485 1485 1485 1485 1486 1486 1486 1486 1486 1486 1485 1485 1485 1485 1484 1484 1483 1482 1481
1472 1473 1473 1474 1474 1474 1475 1475 1475 1476 1476 1477 1478 1478 1479 1480 1480 1481 1481 1482 1482 1482 1482 1483 1484 1484 1484 1485 1485 1486 1486 1486 1486 1485 1485 1484 1484 1484 1484 1483 1483 1482 1481 1481
1471 1471 1472 1472 1472 1472 1472 1473 1473 1474 1474 1475 1476 1477 1477 1478 1479 1480 1481 1481 1481 1481 1482 1483 1483 1483 1484 1485 1485 1485 1485 1485 1485 1485 1484 1483 1483 1483 1482 1482 1481 1481 1480 1479
1470 1470 1471 1471 1471 1471 1471 1471 1472 1472 1473 1473 1474 1475 1476 1477 1478 1479 1479 1479 1480 1481 1482 1482 1482 1483 1483 1484 1484 1484 1485 1484 1484 1484 1483 1482 1482 1481 1481 1480 1480 1479 1479 1478
1469 1469 1469 1469 1469 1469 1470 1470 1471 1471 1472 1472 1473 1474 1475 1476 1477 1477 1478 1479 1479 1480 1481 1482 1482 1482 1483 1483 1483 1483 1483 1483 1483 1482 1481 1481 1481 1480 1480 1479 1478 1478 1477 1476
1468 1468 1468 1468 1469 1469 1469 1469 1470 1470 1470 1471 1472 1473 1474 1475 1475 1476 1477 1478 1479 1479 1480 1481 1481 1482 1482 1483 1482 1482 1482 1482 1481 1481 1480 1480 1480 1479 1478 1478 1477 1476 1475 1474
1468 1468 1468 1468 1468 1469 1469 1469 1469 1469 1469 1470 1471 1472 1473 1474 1475 1476 1477 1478 1478 1479 1480 1481 1481 1481 1481 1482 1482 1482 1481 1481 1480 1480 1479 1479 1478 1477 1476 1476 1475 1474 1473 1472